DW6064 Weather Reports


Display with metric or nautical units.
time (UTC)temp
F
wind
direction
speed
MPH
gust
MPH
rain 1hr
in
rain 24hr
in
rain mn
in
humidity
%
barometer
mb
20260903143531 72 141 7.0 10.0 0.07 0.41 0.09 89 1018.1
20260903143030 72 137 6.0 9.0 0.06 0.40 0.08 89 1018.5
20260903142532 72 178 4.0 5.0 0.05 0.39 0.07 88 1019.1
20260903142031 73 203 1.0 5.0 0.04 0.38 0.06 87 1019.4
20260903141554 73 311 1.0 9.0 0.02 0.36 0.04 86 1019.6
20260903141032 73 311 2.0 16.0 0.01 0.35 0.03 86 1019.2
20260903140529 73 333 5.0 21.0 0.00 0.34 0.02 86 1019.6
20260903140028 73 318 14.0 21.0 0.00 0.34 0.02 87 1019.5
20260903135545 73 292 8.0 18.0 0.00 0.34 0.02 88 1019.3
20260903135042 73 186 6.0 9.0 0.00 0.34 0.02 88 1017.3
20260903134539 74 183 6.0 8.0 0.00 0.34 0.02 88 1017.0
20260903134038 74 207 3.0 9.0 0.00 0.34 0.02 88 1016.8
20260903133534 74 163 6.0 10.0 0.00 0.34 0.02 88 1016.9
20260903133033 74 174 6.0 10.0 0.00 0.34 0.02 88 1017.0
20260903132531 74 163 5.0 11.0 0.00 0.34 0.02 88 1017.0
20260903132055 74 203 4.0 9.0 0.00 0.34 0.02 88 1016.9
20260903131532 74 215 4.0 9.0 0.00 0.34 0.02 88 1017.1
20260903131031 74 225 1.0 9.0 0.00 0.34 0.02 89 1017.2
20260903130529 73 204 2.0 9.0 0.00 0.34 0.02 90 1017.3
20260903130032 73 185 4.0 9.0 0.00 0.34 0.02 89 1017.4
20260903125529 73 240 3.0 8.0 0.00 0.34 0.02 89 1017.4
20260903125028 73 217 2.0 9.0 0.00 0.34 0.02 91 1017.5
20260903124526 72 211 3.0 9.0 0.00 0.34 0.02 92 1017.5
20260903124026 72 219 2.0 8.0 0.00 0.34 0.02 92 1017.6
20260903123543 72 254 4.0 9.0 0.00 0.34 0.02 92 1017.6
20260903123042 72 214 4.0 10.0 0.00 0.34 0.02 92 1017.4
20260903122540 72 199 4.0 10.0 0.00 0.34 0.02 92 1017.2
20260903122039 72 171 2.0 8.0 0.00 0.34 0.02 92 1017.2
20260903121600 72 203 2.0 7.0 0.00 0.34 0.02 93 1017.4
20260903121039 72 186 4.0 7.0 0.00 0.34 0.02 93 1017.2
20260903120535 71 189 5.0 7.0 0.00 0.34 0.02 93 1017.4
20260903120035 71 157 3.0 8.0 0.01 0.34 0.02 93 1017.3
20260903115532 71 184 5.0 8.0 0.01 0.34 0.02 92 1017.3
20260903115032 71 203 2.0 6.0 0.01 0.34 0.02 92 1017.7
20260903114533 71 172 2.0 6.0 0.01 0.34 0.02 92 1017.9
20260903114033 71 185 2.0 5.0 0.01 0.34 0.02 92 1017.8
20260903113528 71 242 0.0 6.0 0.01 0.34 0.02 92 1017.6
20260903113027 71 165 1.0 8.0 0.01 0.34 0.02 92 1017.5
20260903112546 71 242 4.0 8.0 0.01 0.34 0.02 92 1017.7
20260903112044 71 238 4.0 7.0 0.01 0.34 0.02 92 1017.6
20260903111540 71 258 1.0 7.0 0.01 0.34 0.02 92 1017.3
20260903111038 71 190 0.0 5.0 0.01 0.34 0.02 92 1017.3
20260903110535 71 211 3.0 8.0 0.00 0.33 0.01 92 1017.3
20260903110035 71 158 3.0 8.0 0.00 0.33 0.01 91 1017.2
20260903105533 71 124 5.0 7.0 0.00 0.33 0.01 91 1017.3
20260903105032 71 134 3.0 5.0 0.00 0.33 0.01 91 1017.6
20260903104529 71 84 1.0 3.0 0.01 0.33 0.01 92 1018.1
20260903104053 71 315 1.0 3.0 0.01 0.33 0.01 91 1018.4
20260903103530 71 315 1.0 3.0 0.01 0.33 0.01 91 1018.7
20260903103052 71 315 0.0 3.0 0.01 0.33 0.01 91 1018.4
20260903102553 71 315 1.0 2.0 0.01 0.33 0.01 91 1018.5
20260903102050 72 315 0.0 3.0 0.01 0.33 0.01 91 1018.2
20260903101552 71 315 1.0 4.0 0.01 0.33 0.01 91 1018.3
20260903101050 71 346 3.0 4.0 0.01 0.33 0.01 91 1018.1
20260903100553 71 30 1.0 4.0 0.01 0.33 0.01 91 1017.7
20260903100031 72 77 0.0 9.0 0.01 0.33 0.01 90 1017.5
20260903095549 72 74 2.0 9.0 0.01 0.33 0.01 90 1017.4
20260903095031 72 70 1.0 9.0 0.01 0.33 0.01 90 1018.0
20260903094528 72 30 4.0 9.0 0.00 0.32 0.00 90 1018.8
20260903094028 72 5 4.0 8.0 0.00 0.32 0.00 90 1018.8
20260903093545 72 82 3.0 9.0 0.00 0.32 0.00 89 1017.9
20260903093044 72 53 3.0 9.0 0.00 0.32 0.00 89 1018.5
20260903092541 72 9 2.0 10.0 0.00 0.32 0.00 89 1018.5
20260903092041 72 22 2.0 13.0 0.00 0.32 0.00 88 1018.2
20260903091537 72 51 6.0 18.0 0.00 0.32 0.00 87 1017.8
20260903091038 72 33 7.0 23.0 0.00 0.32 0.00 87 1018.1
20260903090533 72 85 13.0 23.0 0.00 0.32 0.00 88 1018.2
20260903090032 72 337 6.0 10.0 0.00 0.32 0.00 88 1017.8
20260903085528 72 29 1.0 5.0 0.00 0.32 0.00 88 1017.3
20260903085026 72 71 1.0 8.0 0.00 0.32 0.00 88 1017.3
20260903084524 72 45 1.0 9.0 0.00 0.32 0.00 88 1017.2
20260903084044 72 16 1.0 11.0 0.00 0.32 0.00 88 1017.3
20260903083525 72 43 3.0 11.0 0.00 0.32 0.00 88 1017.3
20260903083044 72 29 2.0 10.0 0.00 0.32 0.00 88 1017.5
20260903082541 72 5 4.0 9.0 0.00 0.32 0.00 88 1017.5
20260903082104 72 22 2.0 10.0 0.00 0.32 0.00 89 1017.5
20260903081541 72 360 2.0 12.0 0.00 0.32 0.00 89 1017.3
20260903081040 72 53 4.0 12.0 0.00 0.32 0.00 89 1017.2
20260903080538 72 59 4.0 13.0 0.00 0.32 0.00 89 1017.2
20260903080036 72 40 4.0 13.0 0.00 0.32 0.00 90 1017.2
20260903075533 72 55 6.0 12.0 0.00 0.32 0.00 90 1017.2
20260903075033 72 44 3.0 14.0 0.00 0.32 0.00 90 1017.3
20260903074530 72 337 7.0 14.0 0.00 0.32 0.00 90 1017.2
20260903074056 72 355 6.0 15.0 0.00 0.32 0.00 90 1017.1
20260903073557 72 9 7.0 15.0 0.00 0.32 0.00 90 1017.2
20260903073035 72 319 5.0 10.0 0.00 0.32 0.00 90 1017.0
20260903072558 72 157 1.0 4.0 0.00 0.32 0.00 89 1016.5
20260903072036 72 174 1.0 3.0 0.00 0.32 0.00 89 1016.4
20260903071537 72 174 0.0 2.0 0.00 0.32 0.00 90 1016.4
20260903071036 72 174 1.0 3.0 0.00 0.32 0.00 90 1016.3
20260903070534 72 174 1.0 3.0 0.00 0.32 0.00 89 1016.4
20260903070037 73 360 0.0 3.0 0.00 0.32 0.00 90 1016.5
20260903065534 73 360 0.0 3.0 0.00 0.32 0.00 90 1016.5
20260903065058 73 360 2.0 3.0 0.00 0.32 0.00 90 1016.7
20260903064559 73 144 0.0 3.0 0.00 0.32 0.00 89 1016.6
20260903064036 73 144 1.0 3.0 0.00 0.32 0.00 89 1016.4
20260903063533 73 148 3.0 3.0 0.00 0.32 0.00 89 1016.5
20260903063033 73 360 0.0 4.0 0.00 0.32 0.00 89 1016.7
20260903062553 73 360 1.0 5.0 0.00 0.32 0.00 89 1016.8
20260903062032 73 331 3.0 5.0 0.00 0.32 0.00 89 1016.8
20260903061530 73 33 1.0 3.0 0.00 0.32 0.00 89 1016.6
20260903061027 73 33 1.0 3.0 0.00 0.32 0.00 89 1016.6
20260903060526 73 22 1.0 6.0 0.00 0.32 0.00 89 1016.6
20260903060045 73 360 3.0 6.0 0.00 0.32 0.00 89 1016.7
20260903055542 73 5 2.0 6.0 0.00 0.32 0.00 88 1016.6
20260903055042 73 5 2.0 6.0 0.00 0.32 0.00 88 1016.7
20260903054539 73 19 3.0 8.0 0.00 0.32 0.00 88 1016.6
20260903054038 73 11 3.0 9.0 0.00 0.32 0.00 88 1016.6
20260903053540 73 17 4.0 9.0 0.00 0.32 0.00 88 1016.7
20260903053038 73 355 2.0 9.0 0.00 0.32 0.00 87 1016.6
20260903052536 73 346 2.0 5.0 0.00 0.32 0.00 87 1016.7
20260903052036 73 355 2.0 5.0 0.00 0.32 0.00 87 1016.5
20260903051534 73 9 2.0 4.0 0.00 0.32 0.00 86 1016.4
20260903051035 73 59 1.0 4.0 0.00 0.32 0.00 86 1016.5
20260903050532 73 59 1.0 4.0 0.00 0.32 0.00 86 1016.5
20260903050057 73 69 2.0 4.0 0.00 0.32 0.00 86 1016.5
20260903045533 73 32 1.0 4.0 0.00 0.32 0.00 86 1016.6
20260903045032 73 5 3.0 4.0 0.00 0.32 0.00 86 1016.7
20260903044549 73 319 2.0 3.0 0.00 0.32 0.00 86 1016.7
20260903044047 73 281 2.0 3.0 0.00 0.32 0.00 86 1016.7
20260903043543 73 189 1.0 3.0 0.00 0.32 0.00 85 1016.6
20260903043043 73 189 0.0 2.0 0.00 0.32 0.00 85 1016.6
20260903042540 73 189 1.0 2.0 0.00 0.32 0.00 85 1016.4
20260903042038 73 189 0.0 4.0 0.00 0.32 0.00 86 1016.6
20260903041536 73 189 1.0 5.0 0.00 0.32 0.00 85 1016.7
20260903041038 73 189 3.0 5.0 0.00 0.32 0.00 85 1016.7
20260903040534 73 198 3.0 5.0 0.00 0.32 0.00 85 1016.7
20260903040034 74 215 1.0 3.0 0.00 0.32 0.00 85 1016.8
20260903035556 74 329 0.0 3.0 0.00 0.32 0.32 85 1017.1
20260903035034 74 329 0.0 4.0 0.00 0.32 0.32 85 1017.2
20260903034532 74 329 2.0 4.0 0.00 0.32 0.32 85 1017.2
20260903034032 74 334 2.0 3.0 0.00 0.32 0.32 84 1017.2
20260903033529 74 175 0.0 2.0 0.00 0.32 0.32 84 1017.0
20260903033028 74 175 0.0 2.0 0.00 0.32 0.32 84 1017.1
20260903032523 74 175 1.0 3.0 0.00 0.32 0.32 84 1017.0
20260903032043 75 175 2.0 3.0 0.00 0.32 0.32 84 1016.9
20260903031602 75 175 1.0 2.0 0.00 0.32 0.32 84 1016.9
20260903031040 75 175 1.0 2.0 0.00 0.32 0.32 84 1017.1
20260903030537 75 175 1.0 3.0 0.00 0.32 0.32 84 1017.0
20260903030036 75 175 1.0 4.0 0.00 0.32 0.32 84 1016.9
20260903025556 75 175 3.0 4.0 0.00 0.32 0.32 84 1017.0
20260903025035 75 175 3.0 4.0 0.00 0.32 0.32 84 1017.2
20260903024536 75 156 2.0 3.0 0.00 0.32 0.32 84 1017.2
20260903024039 75 156 0.0 6.0 0.00 0.32 0.32 84 1017.1
20260903023536 75 156 2.0 8.0 0.00 0.32 0.32 84 1016.9
20260903023036 75 164 3.0 8.0 0.00 0.32 0.32 84 1016.8
20260903022533 75 144 5.0 8.0 0.00 0.32 0.32 84 1016.6
20260903022033 75 140 4.0 8.0 0.00 0.32 0.32 83 1016.5
20260903021530 75 152 4.0 8.0 0.00 0.32 0.32 83 1016.4
20260903021029 75 174 6.0 8.0 0.00 0.32 0.32 83 1016.6
20260903020552 75 153 4.0 8.0 0.00 0.32 0.32 83 1016.6
20260903020030 75 169 4.0 8.0 0.00 0.32 0.32 83 1016.7
20260903015530 75 145 4.0 7.0 0.00 0.32 0.32 82 1016.8
20260903015029 76 160 3.0 5.0 0.00 0.32 0.32 82 1017.0
20260903014527 76 153 3.0 8.0 0.00 0.32 0.32 82 1017.0
20260903014026 76 136 3.0 10.0 0.00 0.32 0.32 82 1017.0
20260903013542 76 132 5.0 10.0 0.00 0.32 0.32 81 1017.1
20260903013041 76 139 4.0 9.0 0.00 0.32 0.32 82 1017.1
20260903012539 76 152 5.0 9.0 0.00 0.32 0.32 81 1017.2
20260903012044 76 138 7.0 9.0 0.00 0.32 0.32 82 1017.0
20260903011539 76 146 6.0 9.0 0.00 0.32 0.32 82 1016.8
20260903011039 76 162 4.0 7.0 0.00 0.32 0.32 82 1016.9
20260903010535 76 153 6.0 7.0 0.00 0.32 0.32 83 1016.9
20260903010059 77 164 5.0 8.0 0.00 0.32 0.32 82 1017.0
20260903005534 77 168 4.0 7.0 0.00 0.32 0.32 82 1016.9
20260903005034 77 159 4.0 7.0 0.00 0.32 0.32 82 1016.7
20260903004531 77 146 3.0 6.0 0.00 0.32 0.32 82 1016.6
20260903004031 78 148 3.0 6.0 0.00 0.32 0.32 82 1016.7
20260903003526 78 140 2.0 7.0 0.00 0.32 0.32 82 1016.7
20260903003051 78 121 4.0 7.0 0.00 0.32 0.32 82 1016.5
20260903002552 78 123 4.0 7.0 0.00 0.32 0.32 82 1016.6
20260903002029 78 168 3.0 5.0 0.00 0.32 0.32 81 1016.8
20260903001526 79 168 3.0 5.0 0.00 0.32 0.32 81 1017.3
20260903001026 79 188 3.0 3.0 0.00 0.32 0.32 81 1017.1
20260903000543 79 188 2.0 5.0 0.00 0.32 0.32 80 1017.2
20260903000027 79 188 3.0 5.0 0.00 0.32 0.32 80 1017.2
20260902235543 79 190 4.0 6.0 0.00 0.32 0.32 80 1017.2
20260902235042 79 208 2.0 6.0 0.00 0.32 0.32 80 1017.3
20260902234540 80 183 4.0 8.0 0.00 0.32 0.32 80 1017.0
20260902234038 80 163 6.0 8.0 0.00 0.32 0.32 80 1017.1
20260902233536 80 186 4.0 7.0 0.00 0.32 0.32 79 1017.2
20260902233035 80 141 2.0 7.0 0.00 0.32 0.32 79 1017.3
20260902232558 80 150 2.0 5.0 0.00 0.32 0.32 79 1017.3
20260902232101 80 150 3.0 5.0 0.00 0.32 0.32 79 1017.2
20260902231537 80 169 3.0 7.0 0.00 0.32 0.32 79 1017.4
20260902231102 81 146 3.0 7.0 0.00 0.32 0.32 78 1017.4
20260902230538 81 150 4.0 7.0 0.00 0.32 0.32 77 1017.5
20260902230038 81 142 4.0 7.0 0.00 0.32 0.32 78 1017.2
20260902225535 82 121 4.0 7.0 0.00 0.32 0.32 77 1016.8
20260902225033 82 120 3.0 7.0 0.00 0.32 0.32 76 1017.1
20260902224531 82 121 3.0 7.0 0.00 0.32 0.32 76 1017.1
20260902224030 82 134 3.0 5.0 0.00 0.32 0.32 76 1017.1
20260902223552 82 182 3.0 5.0 0.00 0.32 0.32 75 1017.0
20260902223034 82 182 2.0 3.0 0.00 0.32 0.32 76 1016.9
20260902222533 83 182 1.0 2.0 0.00 0.32 0.32 75 1016.9
20260902222033 83 182 0.0 2.0 0.00 0.32 0.32 76 1017.0
20260902221535 83 182 0.0 3.0 0.00 0.32 0.32 74 1016.8
20260902221033 83 182 1.0 3.0 0.00 0.32 0.32 73 1017.0
20260902220555 84 182 1.0 4.0 0.00 0.32 0.32 72 1017.0
20260902220033 84 182 0.0 4.0 0.00 0.32 0.32 72 1016.8
20260902215556 84 227 0.0 4.0 0.00 0.32 0.32 72 1017.0
20260902215057 85 227 1.0 4.0 0.00 0.32 0.32 71 1017.2
20260902214534 85 187 0.0 5.0 0.00 0.32 0.32 70 1017.1
20260902214033 85 187 2.0 7.0 0.00 0.32 0.32 69 1017.1
20260902213530 85 144 3.0 7.0 0.00 0.32 0.32 70 1017.2
20260902213048 85 215 1.0 4.0 0.00 0.32 0.32 68 1017.2
20260902212524 85 258 1.0 4.0 0.00 0.32 0.32 71 1017.2
20260902212044 85 190 2.0 4.0 0.00 0.32 0.32 69 1017.2
20260902211541 85 220 2.0 4.0 0.00 0.32 0.32 69 1017.2
20260902211040 85 164 2.0 5.0 0.00 0.32 0.32 70 1017.2
20260902210538 84 269 2.0 4.0 0.00 0.32 0.32 71 1017.2
20260902210036 84 221 2.0 4.0 0.00 0.32 0.32 71 1017.2
20260902205538 84 180 0.0 4.0 0.00 0.32 0.32 72 1017.3
20260902205037 84 180 2.0 5.0 0.00 0.32 0.32 72 1017.4
20260902204534 84 209 3.0 5.0 0.00 0.32 0.32 71 1017.5
20260902204034 84 175 2.0 5.0 0.00 0.32 0.32 72 1017.6
20260902203529 84 188 1.0 5.0 0.00 0.32 0.32 73 1017.8
20260902203055 85 179 3.0 7.0 0.00 0.32 0.32 69 1017.8
20260902202555 85 140 3.0 7.0 0.00 0.32 0.32 72 1017.8
20260902202034 85 143 4.0 7.0 0.00 0.32 0.32 70 1017.7
20260902201532 85 166 1.0 3.0 0.00 0.32 0.32 71 1017.6
20260902201032 85 165 1.0 5.0 0.00 0.32 0.32 71 1017.6
20260902200528 84 159 3.0 7.0 0.00 0.32 0.32 71 1017.6
20260902200029 84 139 2.0 7.0 0.00 0.32 0.32 72 1017.6
20260902195526 84 165 1.0 5.0 0.00 0.32 0.32 72 1017.5
20260902195025 83 165 1.0 5.0 0.00 0.32 0.32 73 1017.5
20260902194540 83 218 1.0 4.0 0.00 0.32 0.32 73 1017.4
20260902194039 83 64 2.0 7.0 0.00 0.32 0.32 72 1017.4
20260902193541 83 173 4.0 7.0 0.00 0.32 0.32 75 1017.4
20260902193040 82 80 3.0 6.0 0.00 0.32 0.32 76 1017.5
20260902192538 81 182 1.0 8.0 0.00 0.32 0.32 77 1017.6
20260902192038 81 186 5.0 11.0 0.00 0.32 0.32 78 1017.8
20260902191535 80 150 7.0 11.0 0.00 0.32 0.32 82 1017.9
20260902191034 79 178 3.0 7.0 0.00 0.32 0.32 84 1018.0
20260902190531 78 190 5.0 7.0 0.00 0.32 0.32 84 1018.0
20260902190030 78 188 4.0 6.0 0.00 0.32 0.32 85 1017.9
20260902185528 77 136 1.0 7.0 0.00 0.32 0.32 87 1018.0
20260902185047 76 165 2.0 7.0 0.00 0.32 0.32 88 1018.1
20260902184524 76 160 4.0 7.0 0.00 0.32 0.32 91 1018.1
20260902184043 75 184 3.0 5.0 0.00 0.32 0.32 89 1018.1
20260902183538 75 220 1.0 4.0 0.00 0.32 0.32 90 1018.2
20260902183103 75 156 1.0 4.0 0.00 0.32 0.32 93 1018.3
20260902182539 75 186 1.0 3.0 0.00 0.32 0.32 93 1018.4
20260902182043 75 103 1.0 3.0 0.00 0.32 0.32 94 1018.3
20260902181605 74 194 0.0 2.0 0.00 0.32 0.32 94 1018.4
20260902181027 73 194 0.0 1.0 0.00 0.32 0.32 94 1018.4
20260902180524 73 194 0.0 1.0 0.00 0.32 0.32 94 1018.2
20260902180044 73 194 0.0 0.0 0.01 0.32 0.32 93 1018.3
20260902175540 72 194 0.0 1.0 0.01 0.32 0.32 93 1018.4
20260902175039 72 194 0.0 3.0 0.01 0.32 0.32 93 1018.5
20260902174536 72 194 2.0 3.0 0.01 0.32 0.32 93 1018.4
20260902174035 72 206 2.0 4.0 0.01 0.32 0.32 93 1018.6
20260902173532 72 169 1.0 3.0 0.01 0.32 0.32 92 1018.7
20260902173033 72 228 1.0 2.0 0.02 0.32 0.32 93 1018.8
20260902172554 72 228 1.0 5.0 0.02 0.32 0.32 92 1018.9
20260902172032 72 186 2.0 6.0 0.03 0.32 0.32 92 1019.1
20260902171529 72 188 3.0 5.0 0.05 0.32 0.32 92 1019.1
20260902171054 72 160 0.0 1.0 0.11 0.32 0.32 93 1019.2
20260902170530 72 160 0.0 1.0 0.16 0.32 0.32 92 1019.3
20260902170030 72 160 0.0 3.0 0.24 0.31 0.31 92 1019.5
20260902165528 72 160 1.0 3.0 0.31 0.31 0.31 91 1019.6
20260902165031 72 108 0.0 4.0 0.31 0.31 0.31 91 1019.4
20260902164549 72 108 2.0 6.0 0.31 0.31 0.31 90 1019.5
20260902164027 72 142 1.0 6.0 0.31 0.31 0.31 89 1019.7
20260902163542 72 87 2.0 6.0 0.31 0.31 0.31 89 1019.7
20260902163042 73 86 4.0 5.0 0.30 0.30 0.30 89 1019.9
20260902162540 73 51 1.0 5.0 0.30 0.30 0.30 88 1020.6
20260902162104 74 32 0.0 5.0 0.29 0.29 0.29 86 1020.9
20260902161540 75 66 2.0 6.0 0.27 0.27 0.27 85 1021.0
20260902161105 76 355 3.0 6.0 0.21 0.21 0.21 84 1021.7
20260902160540 77 277 4.0 16.0 0.16 0.16 0.16 82 1022.3
20260902160038 78 313 8.0 18.0 0.06 0.06 0.06 80 1022.2
20260902155536 79 304 9.0 21.0 0.00 0.00 0.00 80 1021.7
20260902155035 80 43 10.0 23.0 0.00 0.00 0.00 77 1021.2
20260902154531 81 5 12.0 23.0 0.00 0.00 0.00 76 1021.1
20260902154052 82 347 8.0 16.0 0.00 0.00 0.00 74 1020.4
20260902153553 83 41 6.0 13.0 0.00 0.00 0.00 74 1019.7
20260902153032 83 40 5.0 10.0 0.00 0.00 0.00 76 1019.4
20260902152529 83 314 5.0 10.0 0.00 0.00 0.00 75 1019.1
20260902152029 83 344 3.0 8.0 0.00 0.00 0.00 76 1018.8
20260902151529 84 304 2.0 4.0 0.00 0.00 0.00 74 1018.8
20260902151054 84 355 1.0 4.0 0.00 0.00 0.00 73 1018.6
20260902150529 84 355 2.0 4.0 0.00 0.00 0.00 74 1018.6
20260902150028 84 297 1.0 4.0 0.00 0.00 0.00 74 1018.5
20260902145543 84 292 1.0 3.0 0.00 0.01 0.00 72 1018.4
20260902145043 84 292 0.0 4.0 0.00 0.01 0.00 72 1018.4
20260902144540 83 310 0.0 4.0 0.00 0.01 0.00 74 1018.4
20260902144039 83 351 1.0 4.0 0.00 0.01 0.00 75 1018.4